Regional Weather Roundup
Issued by NWS

Home | Current Version | Previous Version | Graphics & Text | Print | Product List | Glossary On
Versions: 1 2 3 4 5 6 7 8 9 10 11 12 13 14 15 16 17 18 19 20 21 22 23 24 25 26 27 28 29 30 31 32 33 34 35 36 37 38 39 40 41 42 43 44 45 46 47 48 49 50
000
ASUS43 KMKX 200600
RWRWI

WISCONSIN REGIONAL WEATHER ROUNDUP
NATIONAL WEATHER SERVICE MILWAUKEE/SULLIVAN WI
100 AM CDT SUN MAY 20 2018

NOTE: "FAIR" INDICATES FEW OR NO CLOUDS BELOW 12,000 FEET WITH NO
SIGNIFICANT WEATHER AND/OR OBSTRUCTIONS TO VISIBILITY.

WIZ001-002-006>008-014>016-023>028-200700-
NORTHWEST WISCONSIN

CITY           SKY/WX    TMP DP  RH WIND       PRES   REMARKS
SUPERIOR ARPT  FAIR      39  38  94 NE5       30.23S
ASHLAND        FAIR      37  34  89 N5        30.22S WCI  33
6HR MIN TEMP:  37; 6HR MAX TEMP:  51;

HAYWARD        FAIR      40  36  86 N3        30.19R
6HR MIN TEMP:  38; 6HR MAX TEMP:  50;

SIREN          FAIR      45  36  70 NE6       30.19R
CUMBERLAND     FAIR      41  34  75 NE7       30.17R
RICE LAKE      FAIR      43  36  77 N6        30.18S
CHETEK         FAIR      45  37  75 NE6       30.17R
LADYSMITH      FAIR      42  36  79 NE6       30.18S
6HR MIN TEMP:  42; 6HR MAX TEMP:  49;

EAU CLAIRE     NOT AVBL
MENOMONIE      CLOUDY    49  36  60 NE12      30.16R
6HR MIN TEMP:  49; 6HR MAX TEMP:  53;

NEW RICHMOND   FAIR      46  36  66 NE7       30.17R
OSCEOLA        FAIR      45  37  74 NE6       30.21R
6HR MIN TEMP:  45; 6HR MAX TEMP:  54;

$$

WIZ003>005-009-010-017-018-200700-
NORTH CENTRAL WISCONSIN

CITY           SKY/WX    TMP DP  RH WIND       PRES   REMARKS
MANITOWISH WTR MOCLDY    38  36  91 NE8       30.17R WCI  33
6HR MIN TEMP:  38; 6HR MAX TEMP:  42;

ARBOR VITAE    CLOUDY    42  37  82 N6        30.15S
WOODRUFF       CLOUDY    42  37  82 N6        30.15S
RHINELANDER    CLOUDY    43  37  79 MISG      30.16R
6HR MIN TEMP:  43; 6HR MAX TEMP:  44; 6HR PCP: TRACE;

EAGLE RIVER    CLOUDY    40  34  78 N9        30.16R WCI  34
6HR MIN TEMP:  40; 6HR MAX TEMP:  41;

LAND O LAKES   CLOUDY    40  35  83 N13G22    30.18S WCI  32
6HR MIN TEMP:  40; 6HR MAX TEMP:  41;

PHILLIPS       FAIR      39  35  87 NE7       30.16S WCI  34
6HR MIN TEMP:  38; 6HR MAX TEMP:  45;

TOMAHAWK       CLOUDY    41  35  79 NE5       30.16R
MEDFORD        CLOUDY    43  37  79 NE8       30.13S
MERRILL        CLOUDY    44  39  84 N10       30.15R
$$

WIZ029-030-035-036-043>047-200700-
CENTRAL WISCONSIN

CITY           SKY/WX    TMP DP  RH WIND       PRES   REMARKS
WAUSAU         CLOUDY    45  39  79 NE9       30.12S
6HR MIN TEMP:  45; 6HR MAX TEMP:  56; 6HR PCP: TRACE;

MOSINEE        CLOUDY    45  37  76 NE17      30.14S
MARSHFIELD     CLOUDY    47  40  76 NE17G24   30.10F
6HR MIN TEMP:  47; 6HR MAX TEMP:  58;

STEVENS POINT  NOT AVBL
WAUPACA        LGT RAIN  51  42  71 N12       30.12R
WAUTOMA        CLOUDY    52  43  71 NE14      30.10R
6HR MIN TEMP:  52; 6HR MAX TEMP:  77;

WISC RAPIDS    CLOUDY    50  41  71 NE14      30.10F
6HR MIN TEMP:  50; 6HR MAX TEMP:  67; 6HR PCP: TRACE;

CAMP DOUGLAS   NOT AVBL
$$

WIZ011>013-019>022-031-037>040-048>050-200700-
NORTHEAST WISCONSIN

CITY           SKY/WX    TMP DP  RH WIND       PRES   REMARKS
ANTIGO         CLOUDY    41  38  89 N10       30.15S
6HR MIN TEMP:  41; 6HR MAX TEMP:  50;

SHAWANO        CLOUDY    49  40  73 N13G18    30.13S
6HR MIN TEMP:  49; 6HR MAX TEMP:  67;

OCONTO         CLOUDY    46  39  75 N9        30.13S
STURGEON BAY   CLOUDY    44  39  82 N18       30.12F
6HR MIN TEMP:  44; 6HR MAX TEMP:  55;

GREEN BAY      CLOUDY    49  41  74 NE14      30.11S
6HR MIN TEMP:  49; 6HR MAX TEMP:  62;

MANITOWOC      CLOUDY    48  40  73 N12       30.11R
6HR MIN TEMP:  47; 6HR MAX TEMP:  51;

APPLETON       CLOUDY    48  37  66 N17       30.09S
CLINTONVILLE   CLOUDY    48  38  68 NE9       30.13R
6HR MIN TEMP:  48; 6HR MAX TEMP:  67;

OSHKOSH        CLOUDY    52  44  74 NE15      30.09R
6HR MIN TEMP:  52; 6HR MAX TEMP:  69;

$$

WIZ032>034-041-042-053>061-200700-
SOUTHWEST WISCONSIN

CITY           SKY/WX    TMP DP  RH WIND       PRES   REMARKS
LA CROSSE      CLOUDY    55  43  63 N9        30.09R
6HR MIN TEMP:  55; 6HR MAX TEMP:  70;

SPARTA         CLOUDY    51  43  74 N9G17     30.09S
VIROQUA        CLOUDY    53  50  91 NE12      30.06S
BOSCOBEL       LGT RAIN  60  55  83 NE6       30.03R
6HR MIN TEMP:  60; 6HR MAX TEMP:  76; 6HR PCP:  0.14;

PRAIRIE DU CHI CLOUDY    60  53  77 NW9       30.02R
PLATTEVILLE    CLOUDY    64  64 100 NE10      29.99S
$$

WIZ056-057-062-063-064-067-068-200700-
SOUTH CENTRAL WISCONSIN

CITY           SKY/WX    TMP DP  RH WIND       PRES   REMARKS
REEDSBURG      CLOUDY    59  48  67 N7        30.04R
BARABOO/DELLS  CLOUDY    60  53  79 E12G17    30.05R
LONE ROCK      NOT AVBL
MINERAL POINT  LGT RAIN  59  59 100 NE12      30.01F
MADISON        LGT RAIN  56  55  97 E12G22    30.04R FOG
6HR MIN TEMP:  56; 6HR MAX TEMP:  72; 6HR PCP:  0.34;

MIDDLETON      CLOUDY    62  59  90 E6        30.04R
WATERTOWN      CLOUDY    54  50  88 E13       30.05S
MONROE         DRIZZLE   63  61  94 N7        30.01R
JANESVILLE     MOCLDY    59  57  94 NE13G21   30.05R
$$

WIZ051-052-058>065-066-070>072-200700-
SOUTHEAST WISCONSIN

CITY           SKY/WX    TMP DP  RH WIND       PRES   REMARKS
MILWAUKEE      CLOUDY    47  41  80 NE13G20   30.08F
6HR MIN TEMP:  47; 6HR MAX TEMP:  63;

WAUKESHA       CLOUDY    46  41  81 NE14G24   30.08F
MILWAUKEE/TIMM CLOUDY    45  37  76 NE10G21   30.09F
RACINE         CLOUDY    47  42  83 NE16G26   30.09F
6HR MIN TEMP:  46; 6HR MAX TEMP:  57;

BURLINGTON     CLOUDY    51  48  89 NE15G29   30.05F
KENOSHA        CLOUDY    48  43  82 NE15      30.07R
6HR MIN TEMP:  48; 6HR MAX TEMP:  62;

FOND DU LAC    CLOUDY    54  46  74 NE13      30.08S
6HR MIN TEMP:  53; 6HR MAX TEMP:  72;

SHEBOYGAN      CLOUDY    46  42  86 NE12      30.09S
6HR MIN TEMP:  46; 6HR MAX TEMP:  56; 6HR PCP: TRACE;

WEST BEND      CLOUDY    46  43  87 E13       30.08S
JUNEAU         CLOUDY    53  47  78 NE12      30.07S
$$

LSZ147-162-200700-
LAKE SUPERIOR

STATION/POSITION TIME  TEMP    WIND        PRES    WAVE
                       AIR SEA DIR/SP/G            HT/PER
                 (UTC) (F)     (DEG/KT/KT) (MB)    (FT/S)
W MID LAKE BUOY  0450   38 36  110/  4/  4 1023.9R   2/ 5
DEVILS ISLAND    0500   41     340/  5/  6 1024.3R
SAXON HARBOR     0530   36     180/  3/  4 1022.4F
$$

LMZ867-665-643>646-200700-
LAKE MICHIGAN

STATION/POSITION TIME  TEMP    WIND        PRES    WAVE
                       AIR SEA DIR/SP/G            HT/PER
                 (UTC) (F)     (DEG/KT/KT) (MB)    (FT/S)
NORTHPORT PIER   0540   42                 1020.0R
KEWAUNEE LAKESHO 0524   47     350/  5/ 10 1019.1
SHEBOYGAN LAKESH 0500   44      40/ 16/ 18 1019.2R
PORT WASHINGTON  0540   47      50/ 13/ 17 1020.0S
MILWAUKEE LAKESH 0530   45      30/ 16/ 18   N/A
KENOSHA   LAKESH 0500   49                 1018.3
$$

TC  - TEMPERATURE IN CELSIUS
VSB - VISIBILITY IN STATUTE MILES
WCI - WIND CHILL INDEX
HX  - HEAT INDEX





USA.gov is the U.S. government's official web portal to all federal, state and local government web resources and services.